星链-30231 (STARLINK-30231 )

导读 | 豆包AI

STARLINK-30231是美国太空探索技术公司SpaceX星链星座的组网卫星,于2023年8月7日在美国发射升空,属于星链低轨互联网星座的部署批次。星链星座通过数千颗低轨卫星组成卫星互联网网络,该卫星入轨后参与全球宽带互联网服务组网,为地面用户提供覆盖偏远区域、抗地面基础设施破坏的卫星通信接入能力。

Basic Information
目录编号:
57514
目录名称:
STARLINK-30231
国际标识:
2023-113V
轨道中心:
EARTH
卫星名称:
星链-30231
卫星全名:
星链-30231 (STARLINK-30231 )
卫星状态:
在轨 (已飞行997 天)
发射日期:
2023-08-07 UTC
国别 :
美国 (US)
星等 :
--
Orbit Information
数据来源 国际轨道数据 AOE轨道数据
星历时间 2026-04-30T14:20:20+0800
11小时前
查看轨道信息
2026-04-24T05:00:00+0800
6天前
查看轨道信息
半长轴 6861.19km 6861.131km
偏心率 0.0000742 0.0000853
轨道倾角 43.002° 43.003°
近地点辐角 266.343° 286.421°
升交点赤经 84.726° 120.812°
平近点角 93.733° 176.915°
近地点 482.543km 482.408km
远地点 483.563km 483.58km
周期 94.267分钟 94.266分钟
每日圈数 15.275789 15.275987
Detailed Information
固有亮度:
5
最大亮度:
0.3
卫星平台:
Starlink v2.0 mini
覆盖范围:
全球
运营商:
太空探索技术公司
运营商所在国:
美国
制造商(研发单位):
太空探索技术公司
制造商所在国:
美国
使用方式:
暂无
Satellite Introduction
星链(Starlink)计划是由太空探索技术公司(SpaceX)提出的一个巨型低轨卫星互联网星座项目,计划在2019年至2024年间在太空搭建由约1.2万颗卫星组成的“星链”网络,其中1584颗将部署在地球上空550千米处的近地轨道,并从2020年开始工作。该卫星仍在工作。
2D Orbit Map
3D Orbit Map
Orbit Altitude Analysis Chart
Orbit Inclination Analysis Chart
Orbit Comprehensive Analysis Chart
View Comprehensive Chart